Location: Holyhead Bay
(53.3667°N, 4.6667°W)
Time: 19:29:50
(UTC+00:00)

Cosmos 2333 Rocket - Pass Details

Date: 24 November 2020
Orbit: 841 x 861 km, 70.8° (Epoch: 17 January)

Event Time Altitude Azimuth Distance (km) Brightness Sun altitude
Rises 18:46:57 0° 249° (WSW) 3,406 6.6 -22.6°
Reaches altitude 10° 18:49:42 10° 260° (W) 2,470 5.7 -23.0°
Maximum altitude 18:54:40 30° 321° (NW) 1,463 3.7 -23.8°
Enters shadow 18:58:21 16° 14° (NNE) 2,078 4.1 -24.3°
